This demonstration page uses our WeatherBlox Daily Observations layout. Learn more.

Left ArrowRight Arrow

Hourly Observations for November 11, 2022

Temp ( °F °C ) Dew Point ( °F °C ) Humidity (%) Winds ( mph kmh ) Pressure ( in mb ) Visibility ( mi km ) Precip ( " mm )
12:55 am 00:55 Clear 24 -4.4 12 -11.2 59 59 NW 17 28 30.23 1024 10 16 0.00 0.00
1:55 am 01:55 Clear 23 -5.2 9 -12.6 56 56 NW 16 26 30.25 1025 10 16 0.00 0.00
2:55 am 02:55 Clear 22 -5.8 10 -12.3 60 60 NW 14 22 30.25 1025 10 16 0.00 0.00
3:55 am 03:55 Clear 21 -6.3 9 -12.6 61 61 NW 17 28 30.26 1025 10 16 0.00 0.00
4:55 am 04:55 Clear 20 -6.5 10 -12.4 63 63 NW 14 22 30.25 1024 10 16 0.00 0.00
5:55 am 05:55 Clear 20 -6.9 10 -12.4 65 65 WNW 15 24 30.26 1025 10 16 0.00 0.00
8:55 am 08:55 Sunny 22 -5.7 10 -12 61 61 NW 16 26 30.29 1026 10 16 0.00 0.00
9:55 am 09:55 Sunny 25 -3.9 12 -11.2 57 57 WNW 21 33 30.27 1025 10 16 0.00 0.00
10:55 am 10:55 Sunny 28 -2.4 12 -10.9 52 52 WNW 22 35 30.27 1025 10 16 0.00 0.00
11:55 am 11:55 Sunny 29 -1.6 12 -10.9 49 49 NW 15 24 30.27 1025 10 16 0.00 0.00
12:55 pm 12:55 Sunny 30 -1 13 -10.6 48 48 NW 22 35 30.24 1024 10 16 0.00 0.00
1:55 pm 13:55 Mostly Sunny 31 -0.3 13 -10.5 46 46 NW 16 26 30.24 1024 10 16 0.00 0.00
2:55 pm 14:55 Partly Cloudy 32 -0.1 13 -10.6 45 45 NW 17 28 30.24 1024 10 16 0.00 0.00
3:55 pm 15:55 Mostly Sunny 31 -0.8 12 -11 46 46 NW 16 26 30.26 1025 10 16 0.00 0.00
4:55 pm 16:55 Sunny 28 -2.4 11 -11.4 50 50 NW 17 28 30.27 1025 10 16 0.00 0.00
5:55 pm 17:55 Mostly Clear 26 -3.5 12 -11.3 55 55 WNW 14 22 30.28 1025 10 16 0.00 0.00
6:55 pm 18:55 Cloudy 25 -3.7 12 -11.2 56 56 NW 12 19 30.28 1026 10 16 0.00 0.00
7:55 pm 19:55 Cloudy 26 -3.6 12 -10.9 57 57 N 10 17 30.29 1026 10 16 0.00 0.00
8:55 pm 20:55 Cloudy 25 -4.1 12 -11.2 58 58 NW 16 26 30.29 1026 10 16 0.00 0.00
9:28 pm 21:28 Cloudy with Light Snow 25 -4 12 -11 58 58 NW 12 19 30.29 1026 10 16 0.00 0.00
9:42 pm 21:42 Cloudy 25 -4 12 -11 58 58 NW 12 19 30.29 1026 10 16 0.00 0.00
9:55 pm 21:55 Cloudy with Light Snow Showers 25 -4.1 12 -10.9 59 59 NW 13 20 30.29 1026 10 16 0.01 0.13
10:14 pm 22:14 Cloudy 25 -4 12 -11 58 58 NNW 10 17 30.29 1026 10 16 0.00 0.00
10:28 pm 22:28 Cloudy with Light Snow Showers 25 -4 12 -11 58 58 NW 10 17 30.29 1026 10 16 0.00 0.00
10:55 pm 22:55 Cloudy 24 -4.5 12 -11.1 60 60 NNW 13 20 30.29 1026 10 16 0.00 0.00
11:55 pm 23:55 Cloudy 24 -4.6 13 -10.8 62 62 NW 14 22 30.29 1026 10 16 0.00 0.00

Powered by AerisWeather